Location: Cadeilhan
(42.8161°N, 0.3161°E)
Time: 18:26:50
(UTC+00:00)

Cosmos 2123 Rocket - Pass Details

Date: 18 February 2020
Orbit: 961 x 992 km, 82.9° (Epoch: 05 April)

Event Time Altitude Azimuth Distance (km) Brightness Sun altitude
Rises 05:46:00 0° 182° (S) 3,692 7.1 -12.9°
Reaches altitude 10° 05:48:30 10° 182° (S) 2,747 6.4 -12.4°
Maximum altitude 05:54:49 82° 95° (E) 1,005 4.2 -11.3°
Drops below altitude 10° 06:01:09 10° 10° (N) 2,752 6.4 -10.1°
Sets 06:03:40 0° 9° (N) 3,700 7.1 -9.6°
